Montreal Mirabel, Ontario

6:09 AM EDT on March 25, 2017 (GMT -0400)
Montreal International (Mirabel)

Weather History for CYMX - March, 2014

Change the Weather History Date:

Wednesday, March 19, 2014

  Actual Average Record
Temperature  
Mean Temperature 24 °F -  
Max Temperature 33 °F 31 °F 59 °F (2012)
Min Temperature 14 °F 16 °F 3 °F (2015)
Degree Days  
Heating Degree Days 42    
Moisture  
Dew Point 9 °F    
Average Humidity 54    
Maximum Humidity 87    
Minimum Humidity 41    
Precipitation  
Precipitation 0.00 in - - ()
Sea Level Pressure  
Sea Level Pressure 30.12 in    
Wind  
Wind Speed 6 mph ()    
Max Wind Speed 14 mph    
Max Gust Speed 22 mph    
Visibility 13.8 miles    
Events Snow    
Averages and records for this station are not official NWS values.
T = Trace of Precipitation, MM = Missing Value Source: Averaged Metar Reports

Daily Weather History Graph

Daily Weather History Graph

Search for Another Location

Airport or City:

Trip Planner

Search our weather history database for the weather conditions in past years. The results will help you decide how hot, cold, wet, or windy it might be!

Date:

Astronomy

Mar. 19, 2014 Rise Set
Actual Time 7:01 AM EDT 7:07 PM EDT
Civil Twilight 6:31 AM EDT 7:36 PM EDT
Nautical Twilight 5:56 AM EDT 8:11 PM EDT
Astronomical Twilight 5:21 AM EDT 8:47 PM EDT
Moon 10:34 PM EDT (3/19) 8:16 AM EDT (3/19)
Length of Visible Light 13h 05m
Length of Day
12h 06m
Waning Gibbous, 91% of the Moon is Illuminated
Mar 19
Waning Gibbous
Mar 23
Last Quarter
Mar 30
New
Apr 7
First Quarter
Apr 15
Full

Hourly Weather History & Observations

Time (EDT) Temp. Windchill Dew Point Humidity Pressure Visibility Wind Dir Wind Speed Gust Speed Precip Events Conditions
12:00 AM 14.0 °F 8.2 °F -0.4 °F 53% 30.34 in 25.0 mi NNE 3.5 mph - N/A   Clear
1:00 AM 14.0 °F 6.5 °F -0.4 °F 53% 30.33 in 25.0 mi North 4.6 mph - N/A   Clear
2:00 AM 14.0 °F 8.2 °F -2.2 °F 49% 30.32 in 25.0 mi NNE 3.5 mph - N/A   Clear
3:00 AM 15.8 °F 10.2 °F -4.0 °F 41% 30.31 in 25.0 mi North 3.5 mph - N/A   Clear
4:00 AM 14.0 °F 8.2 °F -5.8 °F 41% 30.30 in 25.0 mi NE 3.5 mph - N/A   Clear
5:00 AM 15.8 °F 7.2 °F -4.0 °F 41% 30.29 in 25.0 mi ENE 5.8 mph - N/A   Scattered Clouds
6:00 AM 15.8 °F 8.6 °F -2.2 °F 45% 30.30 in 25.0 mi NE 4.6 mph - N/A   Mostly Cloudy
7:00 AM 15.8 °F 7.2 °F -0.4 °F 49% 30.29 in 45.0 mi NE 5.8 mph - N/A   Mostly Cloudy
8:00 AM 17.6 °F 9.3 °F -0.4 °F 45% 30.27 in 45.0 mi NE 5.8 mph - N/A   Overcast
9:00 AM 19.4 °F 10.4 °F 1.4 °F 46% 30.27 in 45.0 mi ENE 6.9 mph - N/A   Overcast
10:00 AM 19.4 °F 7.2 °F 1.4 °F 46% 30.24 in 25.0 mi ENE 11.5 mph - N/A   Overcast
11:00 AM 21.2 °F 9.5 °F 3.2 °F 46% 30.19 in 20.0 mi ENE 11.5 mph 21.9 mph N/A   Mostly Cloudy
12:00 PM 21.2 °F 10.9 °F 6.8 °F 54% 30.18 in 25.0 mi ENE 9.2 mph - N/A   Overcast
1:00 PM 24.8 °F 16.9 °F 8.6 °F 50% 30.14 in 25.0 mi NE 6.9 mph - N/A   Overcast
2:00 PM 24.8 °F 15.3 °F 10.4 °F 54% 30.09 in 20.0 mi NE 9.2 mph 18.4 mph N/A   Overcast
3:00 PM 26.6 °F 18.2 °F 12.2 °F 55% 30.06 in 45.0 mi NE 8.1 mph - N/A   Overcast
4:00 PM 28.4 °F 20.4 °F 14.0 °F 55% 30.01 in 35.0 mi NE 8.1 mph - N/A   Overcast
4:49 PM 28.4 °F 22.2 °F 15.8 °F 59% 29.99 in 6.0 mi NE 5.8 mph - N/A Snow Light Snow
5:00 PM 28.4 °F 20.4 °F 15.8 °F 59% 29.98 in 4.0 mi NE 8.1 mph - N/A Snow Light Snow
6:00 PM 32.0 °F 25.6 °F 17.6 °F 55% 29.96 in 25.0 mi NE 6.9 mph - N/A Snow Light Snow
7:00 PM 33.8 °F 27.0 °F 15.8 °F 48% 29.93 in 25.0 mi East 8.1 mph - N/A   Overcast
8:00 PM 32.0 °F 24.8 °F 17.6 °F 55% 29.93 in 25.0 mi NE 8.1 mph - N/A   Overcast
8:51 PM 33.8 °F 25.8 °F 24.8 °F 70% 29.91 in 20.0 mi ESE 10.4 mph - N/A Snow Light Snow
9:00 PM 33.8 °F 25.8 °F 24.8 °F 70% 29.91 in 20.0 mi ESE 10.4 mph - N/A Snow Light Snow
10:00 PM 32.0 °F 22.1 °F 28.4 °F 87% 29.87 in 15.0 mi ESE 13.8 mph - N/A Snow Light Snow
11:00 PM 32.0 °F 24.8 °F 28.4 °F 87% 29.84 in 5.0 mi East 8.1 mph - N/A Snow Light Snow